User: anonymous   Login
Location: Campavaglio
(41.1333°N, 9.2333°E)
Time: 02:58:54
(UTC+00:00)
Language:

STARLINK-1345 - Orbit

View from above orbital plane
View from above orbital plane
View from above satellite
View from above satellite

Ground track
Ground track

The orbit data is extracted from the following two-line orbital elements,

1 45585U 20025BG  20221.91667824 -.01075215 +00000-0 -34926-1 0  9994
2 45585 052.9997 230.3401 0001244 066.4222 240.0163 15.34189522001766
Epoch (UTC): 08 August 2020 22:00:01
Eccentricity: 0.0001244
inclination: 52.9997°
perigee height: 462 km
apogee height: 464 km
right ascension of ascending node: 230.3401°
argument of perigee: 66.4222°
revolutions per day: 15.34189522
mean anomaly at epoch: 240.0163°
orbit number at epoch: 176

The dashed part of the orbit path shows where the satellite is in the earth's shadow,  

DLR